1 Minute Report
Date Time Wind Direction Wind Speed Wind Gust Wind Variable Altimeter Temperature Dewpoint Relative Humidity Visibility Ceiling Precip Present Weather Density Alt Wind Chill Heat Index
18/10/2012:2530004N/AN/A30.3538(F), 3(C)32(F), 0(C)81%10CLRN/AN/AN/A38 FN/A2464
18/10/2012:2030004N/AN/A30.3538(F), 3(C)32(F), 0(C)81%10CLRN/AN/AN/A38 FN/A2459
18/10/2012:1529004N/AN/A30.3539(F), 4(C)32(F), 0(C)75%10CLRN/AN/AN/A39 FN/A2454
18/10/2012:1030003N/AN/A30.3539(F), 4(C)32(F), 0(C)75%10CLRN/AN/AN/A39 FN/A2449
18/10/2012:0529005N/AN/A30.3438(F), 3(C)32(F), 0(C)81%10CLRN/AN/AN/A34 FN/A2444
18/10/2012:0028006N/AN/A30.3437(F), 3(C)32(F), 0(C)81%10CLRN/AN/AN/A32 FN/A2439
18/10/2011:5527006N/AN/A30.3437(F), 3(C)32(F), 0(C)81%10CLRN/AN/AN/A32 FN/A2434
18/10/2011:5027004N/AN/A30.3437(F), 3(C)32(F), 0(C)81%10CLRN/AN/AN/A37 FN/A2429
18/10/2011:4527003N/AN/A30.3437(F), 3(C)32(F), 0(C)81%10CLRN/AN/AN/A37 FN/A2424
18/10/2011:4027004N/AN/A30.3437(F), 3(C)32(F), 0(C)81%10CLRN/AN/AN/A37 FN/A2419
18/10/2011:3526004N/AN/A30.3437(F), 3(C)32(F), 0(C)81%10CLRN/AN/AN/A37 FN/A2414
18/10/2011:3026003N/AN/A30.3337(F), 3(C)32(F), 0(C)81%10CLRN/AN/AN/A37 FN/A2409
18/10/2011:2526003N/AN/A30.3338(F), 3(C)32(F), 0(C)81%10CLRN/AN/AN/A38 FN/A2404
18/10/2011:2028004N/AN/A30.3338(F), 3(C)32(F), 0(C)81%10CLRN/AN/AN/A38 FN/A2399
18/10/2011:1528005N/AN/A30.3338(F), 3(C)32(F), 0(C)81%10CLRN/AN/AN/A34 FN/A2394
18/10/2011:1028007N/AN/A30.3338(F), 3(C)32(F), 0(C)81%10CLRN/AN/AN/A33 FN/A2389
18/10/2011:0527006N/AN/A30.3238(F), 3(C)32(F), 0(C)81%10CLRN/AN/AN/A33 FN/A2384
18/10/2011:0026006N/AN/A30.3238(F), 3(C)32(F), 0(C)81%10CLRN/AN/AN/A33 FN/A2379
18/10/2010:5526006N/AN/A30.3238(F), 3(C)32(F), 0(C)81%10CLRN/AN/AN/A33 FN/A2374
18/10/2010:5026006N/AN/A30.3238(F), 3(C)32(F), 0(C)81%10CLRN/AN/AN/A33 FN/A2369
18/10/2010:4526006N/AN/A30.3238(F), 3(C)32(F), 0(C)81%10CLRN/AN/AN/A33 FN/A2364
18/10/2010:4027006N/AN/A30.3237(F), 3(C)32(F), 0(C)81%10CLRN/AN/AN/A32 FN/A2359
18/10/2010:3527006N/AN/A30.3237(F), 3(C)32(F), 0(C)81%10CLRN/AN/AN/A32 FN/A2354
18/10/2010:3026005N/AN/A30.3137(F), 3(C)32(F), 0(C)81%10CLRN/AN/AN/A33 FN/A2349
18/10/2010:2526005N/AN/A30.3137(F), 3(C)32(F), 0(C)81%10CLRN/AN/AN/A33 FN/A2344
18/10/2010:2026004N/AN/A30.3137(F), 3(C)32(F), 0(C)81%10CLRN/AN/AN/A37 FN/A2339
18/10/2010:1525003N/AN/A30.3138(F), 3(C)32(F), 0(C)81%10CLRN/AN/AN/A38 FN/A2334
18/10/2010:1024003N/AN/A30.3138(F), 3(C)32(F), 0(C)81%10CLRN/AN/AN/A38 FN/A2329
18/10/2010:0525004N/AN/A30.3139(F), 4(C)32(F), 0(C)75%10CLRN/AN/AN/A39 FN/A2324
18/10/2010:0027005N/AN/A30.3139(F), 4(C)32(F), 0(C)75%10CLRN/AN/AN/A35 FN/A2319
18/10/2009:5527006N/AN/A30.3139(F), 4(C)32(F), 0(C)75%10CLRN/AN/AN/A35 FN/A2314
18/10/2009:5027006N/AN/A30.3139(F), 4(C)32(F), 0(C)75%10CLRN/AN/AN/A35 FN/A2309
18/10/2009:4528006N/AN/A30.3139(F), 4(C)32(F), 0(C)75%10CLRN/AN/AN/A35 FN/A2304
18/10/2009:4028005N/AN/A30.3139(F), 4(C)32(F), 0(C)75%10CLRN/AN/AN/A35 FN/A2299
18/10/2009:3528006N/AN/A30.3140(F), 4(C)32(F), 0(C)75%10CLRN/AN/AN/A36 FN/A2294
18/10/2009:3028006N/AN/A30.3140(F), 4(C)32(F), 0(C)75%10CLRN/AN/AN/A36 FN/A2289
18/10/2009:2529007N/AN/A30.3141(F), 5(C)32(F), 0(C)70%10CLRN/AN/AN/A36 FN/A2284
18/10/2009:2029008N/AN/A30.3140(F), 4(C)32(F), 0(C)75%10CLRN/AN/AN/A35 FN/A2279
18/10/2009:1528009N/AN/A30.3140(F), 4(C)33(F), 1(C)81%10CLRN/AN/AN/A34 FN/A2274
18/10/2009:1028008N/AN/A30.3140(F), 4(C)33(F), 1(C)81%10CLRN/AN/AN/A35 FN/A2269
18/10/2009:0529008N/AN/A30.3140(F), 4(C)33(F), 1(C)81%10CLRN/AN/AN/A35 FN/A2264
18/10/2009:0029007N/AN/A30.3140(F), 4(C)33(F), 1(C)81%10CLRN/AN/AN/A35 FN/A2259
18/10/2008:5529008N/AN/A30.3140(F), 4(C)33(F), 1(C)81%10CLRN/AN/AN/A35 FN/A2254
18/10/2008:5029008N/AN/A30.3140(F), 4(C)33(F), 1(C)81%10CLRN/AN/AN/A35 FN/A2249
18/10/2008:4529008N/AN/A30.3140(F), 4(C)33(F), 1(C)81%10CLRN/AN/AN/A35 FN/A2244
18/10/2008:4029007N/AN/A30.3140(F), 4(C)33(F), 1(C)81%10CLRN/AN/AN/A35 FN/A2239
18/10/2008:3530006N/AN/A30.3140(F), 4(C)33(F), 1(C)81%10CLRN/AN/AN/A36 FN/A2234
18/10/2008:3030006N/AN/A30.3140(F), 4(C)33(F), 1(C)81%10CLRN/AN/AN/A36 FN/A2229
18/10/2008:2530007N/AN/A30.3139(F), 4(C)33(F), 1(C)81%10CLRN/AN/AN/A34 FN/A2224
18/10/2008:2029007N/AN/A30.3139(F), 4(C)33(F), 1(C)81%10CLRN/AN/AN/A34 FN/A2219
18/10/2008:1530007N/AN/A30.3139(F), 4(C)33(F), 1(C)81%10CLRN/AN/AN/A34 FN/A2214
18/10/2008:1029007N/AN/A30.3139(F), 4(C)33(F), 1(C)81%10CLRN/AN/AN/A34 FN/A2209
18/10/2008:0529006N/AN/A30.3139(F), 4(C)33(F), 1(C)81%10CLRN/AN/AN/A35 FN/A2204
18/10/2008:0028006N/AN/A30.3139(F), 4(C)33(F), 1(C)81%10CLRN/AN/AN/A35 FN/A2199
18/10/2007:5527005N/AN/A30.3139(F), 4(C)33(F), 1(C)81%10CLRN/AN/AN/A35 FN/A2194
18/10/2007:5028005N/AN/A30.3040(F), 4(C)33(F), 1(C)81%10CLRN/AN/AN/A36 FN/A2189
18/10/2007:4528005N/AN/A30.3040(F), 4(C)33(F), 1(C)81%10CLRN/AN/AN/A36 FN/A2184
18/10/2007:4027004N/AN/A30.3040(F), 4(C)33(F), 1(C)81%10CLRN/AN/AN/A40 FN/A2179
18/10/2007:3528006N/AN/A30.2940(F), 4(C)33(F), 1(C)81%10CLRN/AN/AN/A36 FN/A2174
18/10/2007:3028006N/AN/A30.2941(F), 5(C)33(F), 1(C)75%10CLRN/AN/AN/A37 FN/A2169
18/10/2007:2529007N/AN/A30.2941(F), 5(C)33(F), 1(C)75%10CLRN/AN/AN/A36 FN/A2164
18/10/2007:2029007N/AN/A30.2941(F), 5(C)33(F), 1(C)75%10CLRN/AN/AN/A36 FN/A2159
18/10/2007:1529007N/AN/A30.2941(F), 5(C)33(F), 1(C)75%10CLRN/AN/AN/A36 FN/A2154
18/10/2007:1029006N/AN/A30.2941(F), 5(C)33(F), 1(C)75%10CLRN/AN/AN/A37 FN/A2149
18/10/2007:0529006N/AN/A30.2941(F), 5(C)33(F), 1(C)75%10CLRN/AN/AN/A37 FN/A2144
18/10/2007:0029007N/AN/A30.2942(F), 6(C)33(F), 1(C)70%10CLRN/AN/AN/A38 FN/A2139
18/10/2006:5530006N/AN/A30.2942(F), 6(C)33(F), 1(C)70%10CLRN/AN/AN/A38 FN/A2134
18/10/2006:5030007N/AN/A30.2942(F), 6(C)33(F), 1(C)70%10CLRN/AN/AN/A38 FN/A2129
18/10/2006:4530006N/AN/A30.2942(F), 6(C)33(F), 1(C)70%10CLRN/AN/AN/A38 FN/A2124
18/10/2006:4029007N/AN/A30.2942(F), 6(C)33(F), 1(C)70%10CLRN/AN/AN/A38 FN/A2119
18/10/2006:3529008N/AN/A30.2942(F), 6(C)33(F), 1(C)70%10CLRN/AN/AN/A37 FN/A2114
18/10/2006:3029007N/AN/A30.2942(F), 6(C)33(F), 1(C)70%10CLRN/AN/AN/A38 FN/A2109
18/10/2006:2529007N/AN/A30.2942(F), 6(C)33(F), 1(C)70%10CLRN/AN/AN/A38 FN/A2104
18/10/2006:2029008N/AN/A30.2942(F), 6(C)33(F), 1(C)70%10CLRN/AN/AN/A37 FN/A2099
18/10/2006:1529007N/AN/A30.2942(F), 6(C)33(F), 1(C)70%10CLRN/AN/AN/A38 FN/A2094
18/10/2006:1029007N/AN/A30.2943(F), 6(C)33(F), 1(C)70%10CLRN/AN/AN/A39 FN/A2089
18/10/2006:0529007N/AN/A30.2943(F), 6(C)34(F), 1(C)70%10CLRN/AN/AN/A39 FN/A2084
18/10/2006:0029007N/AN/A30.2943(F), 6(C)34(F), 1(C)70%10CLRN/AN/AN/A39 FN/A2079
18/10/2005:5529007N/AN/A30.2943(F), 6(C)34(F), 1(C)70%10CLRN/AN/AN/A39 FN/A2074
18/10/2005:5029007N/AN/A30.2943(F), 6(C)34(F), 1(C)70%10CLRN/AN/AN/A39 FN/A2069
18/10/2005:4530006N/AN/A30.2943(F), 6(C)34(F), 1(C)70%10CLRN/AN/AN/A39 FN/A2064
18/10/2005:4030006N/AN/A30.2943(F), 6(C)34(F), 1(C)70%10CLRN/AN/AN/A39 FN/A2059
18/10/2005:3530007N/AN/A30.2943(F), 6(C)34(F), 1(C)70%10CLRN/AN/AN/A39 FN/A2054
18/10/2005:3030006N/AN/A30.2943(F), 6(C)34(F), 1(C)70%10CLRN/AN/AN/A39 FN/A2049
18/10/2005:2529007N/AN/A30.2943(F), 6(C)34(F), 1(C)70%10CLRN/AN/AN/A39 FN/A2044
18/10/2005:2029006N/AN/A30.2944(F), 7(C)34(F), 1(C)66%10CLRN/AN/AN/A41 FN/A2039
18/10/2005:1529008N/AN/A30.2944(F), 7(C)34(F), 1(C)66%10CLRN/AN/AN/A39 FN/A2034
18/10/2005:1030007N/AN/A30.2944(F), 7(C)34(F), 1(C)66%10CLRN/AN/AN/A40 FN/A2029
18/10/2005:0529007N/AN/A30.2845(F), 7(C)34(F), 1(C)66%10CLRN/AN/AN/A41 FN/A2024
18/10/2005:0029008N/AN/A30.2845(F), 7(C)34(F), 1(C)66%10CLRN/AN/AN/A41 FN/A2019
18/10/2004:5529009N/AN/A30.2845(F), 7(C)34(F), 1(C)66%10CLRN/AN/AN/A40 FN/A2014
18/10/2004:5029008N/AN/A30.2845(F), 7(C)34(F), 1(C)66%10CLRN/AN/AN/A41 FN/A2009
18/10/2004:4529008N/AN/A30.2845(F), 7(C)34(F), 1(C)66%10CLRN/AN/AN/A41 FN/A2004
18/10/2004:4029008N/AN/A30.2845(F), 7(C)34(F), 1(C)66%10CLRN/AN/AN/A41 FN/A1999
18/10/2004:3529008N/AN/A30.2845(F), 7(C)34(F), 1(C)66%10CLRN/AN/AN/A41 FN/A1994
18/10/2004:3029007N/AN/A30.2845(F), 7(C)34(F), 1(C)66%10CLRN/AN/AN/A41 FN/A1989
18/10/2004:2530007N/AN/A30.2845(F), 7(C)34(F), 1(C)66%10CLRN/AN/AN/A41 FN/A1984
18/10/2004:2029007N/AN/A30.2845(F), 7(C)35(F), 2(C)70%10CLRN/AN/AN/A41 FN/A1979
18/10/2004:1530007N/AN/A30.2846(F), 8(C)35(F), 2(C)66%10CLRN/AN/AN/A42 FN/A1974
18/10/2004:1030007N/AN/A30.2746(F), 8(C)35(F), 2(C)66%10CLRN/AN/AN/A42 FN/A1969
18/10/2004:0530008N/AN/A30.2746(F), 8(C)35(F), 2(C)66%10CLRN/AN/AN/A42 FN/A1964
18/10/2004:0029008N/AN/A30.2746(F), 8(C)35(F), 2(C)66%10CLRN/AN/AN/A42 FN/A1959
18/10/2003:5529007N/AN/A30.2747(F), 8(C)35(F), 2(C)66%10CLRN/AN/AN/A44 FN/A1954
18/10/2003:5029008N/AN/A30.2747(F), 8(C)35(F), 2(C)66%10CLRN/AN/AN/A43 FN/A1949
18/10/2003:4530007N/AN/A30.2747(F), 8(C)35(F), 2(C)66%10CLRN/AN/AN/A44 FN/A1944
18/10/2003:4030007N/AN/A30.2747(F), 8(C)35(F), 2(C)66%10CLRN/AN/AN/A44 FN/A1939
18/10/2003:3530007N/AN/A30.2647(F), 8(C)35(F), 2(C)66%10CLRN/AN/AN/A44 FN/A1934
18/10/2003:3030007N/AN/A30.2647(F), 8(C)35(F), 2(C)66%10CLRN/AN/AN/A44 FN/A1929
18/10/2003:2530008N/AN/A30.2647(F), 8(C)35(F), 2(C)66%10CLRN/AN/AN/A43 FN/A1924
18/10/2003:2030007N/AN/A30.2647(F), 8(C)35(F), 2(C)66%10CLRN/AN/AN/A44 FN/A1919
18/10/2003:1529008N/AN/A30.2647(F), 8(C)35(F), 2(C)66%10CLRN/AN/AN/A43 FN/A1914
18/10/2003:1029008N/AN/A30.2547(F), 8(C)35(F), 2(C)66%10CLRN/AN/AN/A43 FN/A1909
18/10/2003:0529007N/AN/A30.2547(F), 8(C)35(F), 2(C)66%10CLRN/AN/AN/A44 FN/A1904
18/10/2003:0029007N/AN/A30.2547(F), 8(C)35(F), 2(C)66%10CLRN/AN/AN/A44 FN/A1899
18/10/2002:5529007N/AN/A30.2547(F), 8(C)35(F), 2(C)66%10CLRN/AN/AN/A44 FN/A1894
18/10/2002:5029007N/AN/A30.2548(F), 9(C)35(F), 2(C)62%10CLRN/AN/AN/A45 FN/A1889
18/10/2002:4529006N/AN/A30.2448(F), 9(C)35(F), 2(C)62%10CLRN/AN/AN/A45 FN/A1884
18/10/2002:4029007N/AN/A30.2448(F), 9(C)35(F), 2(C)62%10CLRN/AN/AN/A45 FN/A1879
18/10/2002:3529007N/AN/A30.2448(F), 9(C)35(F), 2(C)62%10CLRN/AN/AN/A45 FN/A1874
18/10/2002:3029007N/AN/A30.2448(F), 9(C)35(F), 2(C)62%10CLRN/AN/AN/A45 FN/A1869
18/10/2002:2529007N/AN/A30.2448(F), 9(C)34(F), 1(C)57%10CLRN/AN/AN/A45 FN/A1864
18/10/2002:2029007N/AN/A30.2449(F), 9(C)34(F), 1(C)57%10CLRN/AN/AN/A46 FN/A1859
18/10/2002:1529007N/AN/A30.2449(F), 9(C)35(F), 2(C)62%10CLRN/AN/AN/A46 FN/A1854
18/10/2002:1029007N/AN/A30.2350(F), 10(C)34(F), 1(C)54%10CLRN/AN/AN/A47 FN/A1849
18/10/2002:0529007N/AN/A30.2350(F), 10(C)34(F), 1(C)54%10CLRN/AN/AN/A47 FN/A1844
18/10/2002:0029007N/AN/A30.2350(F), 10(C)34(F), 1(C)54%10CLRN/AN/AN/A47 FN/A1839
18/10/2001:5528007N/AN/A30.2350(F), 10(C)34(F), 1(C)54%10CLRN/AN/AN/A47 FN/A1834
18/10/2001:5029006N/AN/A30.2350(F), 10(C)35(F), 2(C)58%10CLRN/AN/AN/A48 FN/A1829
18/10/2001:4529005N/AN/A30.2351(F), 11(C)35(F), 2(C)54%10CLRN/AN/AN/A49 FN/A1824
18/10/2001:4027006N/AN/A30.2353(F), 12(C)33(F), 1(C)47%10CLRN/AN/AN/A51 FN/A1819
18/10/2001:3531005N/AN/A30.2255(F), 13(C)33(F), 1(C)44%10CLRN/AN/AN/A54 FN/A1814
18/10/2001:3032005N/AN/A30.2256(F), 13(C)33(F), 1(C)44%10CLRN/AN/AN/A55 FN/A1809
18/10/2001:2533005N/AN/A30.2257(F), 14(C)32(F), 0(C)38%10CLRN/AN/AN/A56 FN/A1804
18/10/2001:2033005N/AN/A30.2259(F), 15(C)32(F), 0(C)36%10CLRN/AN/AN/A59 FN/A1799
18/10/2001:1533005N/AN/A30.2260(F), 16(C)31(F), -1(C)31%10CLRN/AN/AN/A60 FN/A1794
18/10/2001:1034006N/AN/A30.2261(F), 16(C)31(F), -1(C)31%10CLRN/AN/AN/A61 FN/A1789
18/10/2001:0534008N/AN/A30.2261(F), 16(C)31(F), -1(C)31%10CLRN/AN/AN/A60 FN/A1784
18/10/2001:0034007N/AN/A30.2161(F), 16(C)31(F), -1(C)31%10CLRN/AN/AN/A60 FN/A1779
18/10/2000:5534007N/AN/A30.2160(F), 16(C)32(F), 0(C)34%10CLRN/AN/AN/A59 FN/A1774
18/10/2000:5034006N/AN/A30.2059(F), 15(C)32(F), 0(C)36%10CLRN/AN/AN/A58 FN/A1769
18/10/2000:4534005N/AN/A30.2060(F), 16(C)32(F), 0(C)34%10CLRN/AN/AN/A60 FN/A1764
18/10/2000:4034005N/AN/A30.2061(F), 16(C)32(F), 0(C)34%10CLRN/AN/AN/A61 FN/A1759
18/10/2000:3533005N/AN/A30.2062(F), 17(C)32(F), 0(C)32%10CLRN/AN/AN/A62 FN/A1754
18/10/2000:3033006N/AN/A30.2062(F), 17(C)32(F), 0(C)32%10CLRN/AN/AN/A62 FN/A1749
18/10/2000:2534006N/AN/A30.1963(F), 17(C)32(F), 0(C)32%10CLRN/AN/AN/A63 FN/A1744
18/10/2000:2034007N/AN/A30.1963(F), 17(C)32(F), 0(C)32%10CLRN/AN/AN/A63 FN/A1739
18/10/2000:1534006N/AN/A30.1963(F), 17(C)32(F), 0(C)32%10CLRN/AN/AN/A63 FN/A1734
18/10/2000:1034007N/AN/A30.1863(F), 17(C)32(F), 0(C)32%10CLRN/AN/AN/A63 FN/A1729
18/10/2000:0533005N/AN/A30.1864(F), 18(C)32(F), 0(C)30%10CLRN/AN/AN/A65 FN/A1724
18/10/2000:0034006N/AN/A30.1864(F), 18(C)32(F), 0(C)30%10CLRN/AN/AN/A64 FN/A1719
18/10/1923:5534006N/AN/A30.1765(F), 18(C)32(F), 0(C)30%10CLRN/AN/AN/A66 FN/A1714
18/10/1923:5034006N/AN/A30.1765(F), 18(C)32(F), 0(C)30%10CLRN/AN/AN/A66 FN/A1709
18/10/1923:4534006N/AN/A30.1766(F), 19(C)32(F), 0(C)28%10CLRN/AN/AN/A67 FN/A1704
18/10/1923:4034006N/AN/A30.1767(F), 19(C)32(F), 0(C)28%10CLRN/AN/AN/A68 FN/A1699
18/10/1923:3535006N/AN/A30.1668(F), 20(C)32(F), 0(C)26%10CLRN/AN/AN/A69 FN/A1694
18/10/1923:3035009N/AN/A30.1668(F), 20(C)32(F), 0(C)26%10CLRN/AN/AN/A69 FN/A1689
18/10/1923:253500816N/A30.1669(F), 21(C)31(F), -1(C)23%10CLRN/AN/AN/A70 FN/A1684
18/10/1923:203500916N/A30.1570(F), 21(C)31(F), -1(C)23%10CLRN/AN/AN/A71 FN/A1679
18/10/1923:1535010N/AN/A30.1570(F), 21(C)31(F), -1(C)23%10CLRN/AN/AN/A71 FN/A1674
18/10/1923:1035010N/AN/A30.1571(F), 22(C)31(F), -1(C)22%10CLRN/AN/AN/AN/A75 F1669
18/10/1923:053501116N/A30.1571(F), 22(C)31(F), -1(C)22%10CLRN/AN/AN/AN/A75 F1664
18/10/1923:003501016N/A30.1571(F), 22(C)31(F), -1(C)22%10CLRN/AN/AN/AN/A75 F1659
18/10/1922:553501118N/A30.1472(F), 22(C)31(F), -1(C)22%10CLRN/AN/A3000N/A75 F1654
18/10/1922:503501418N/A30.1472(F), 22(C)33(F), 1(C)25%10CLRN/AN/A3000N/A76 F1649
18/10/1922:453401318N/A30.1472(F), 22(C)33(F), 1(C)25%10CLRN/AN/A3000N/A76 F1644
18/10/1922:403501218N/A30.1473(F), 23(C)34(F), 1(C)23%10CLRN/AN/A3000N/A76 F1639
18/10/1922:3535012N/AN/A30.1373(F), 23(C)35(F), 2(C)25%10CLRN/AN/A3000N/A76 F1634
18/10/1922:303401117N/A30.1373(F), 23(C)35(F), 2(C)25%10CLRN/AN/A3000N/A76 F1629
18/10/1922:253401117N/A30.1373(F), 23(C)35(F), 2(C)25%10CLRN/AN/A3000N/A76 F1624
18/10/1922:203401217N/A30.1374(F), 23(C)36(F), 2(C)25%10CLRN/AN/A3100N/A76 F1619
18/10/1922:153400917N/A30.1374(F), 23(C)36(F), 2(C)25%10CLRN/AN/A3100N/A76 F1614
18/10/1922:103401016N/A30.1374(F), 23(C)36(F), 2(C)25%10CLRN/AN/A3100N/A76 F1609
18/10/1922:053501318N/A30.1274(F), 23(C)36(F), 2(C)25%10CLRN/AN/A3100N/A76 F1604
18/10/1922:003401318N/A30.1274(F), 23(C)36(F), 2(C)25%10CLRN/AN/A3100N/A76 F1599
18/10/1921:553301317N/A30.1175(F), 24(C)36(F), 2(C)24%10CLRN/AN/A3200N/A76 F1594
18/10/1921:503400817N/A30.1174(F), 23(C)36(F), 2(C)25%10CLRN/AN/A3100N/A76 F1589
18/10/1921:453401220N/A30.1175(F), 24(C)35(F), 2(C)24%10CLRN/AN/A3200N/A76 F1584
18/10/1921:403401320N/A30.1175(F), 24(C)34(F), 1(C)22%10CLRN/AN/A3200N/A76 F1579
18/10/1921:353401219N/A30.1175(F), 24(C)35(F), 2(C)24%10CLRN/AN/A3200N/A76 F1574
18/10/1921:303301419N/A30.1175(F), 24(C)34(F), 1(C)22%10CLRN/AN/A3200N/A76 F1569
18/10/1921:253401219N/A30.1175(F), 24(C)33(F), 1(C)22%10CLRN/AN/A3200N/A76 F1564
18/10/1921:203301520N/A30.1176(F), 24(C)34(F), 1(C)22%10CLRN/AN/A3300N/A77 F1559
18/10/1921:153501420N/A30.1076(F), 24(C)33(F), 1(C)22%10CLRN/AN/A3300N/A77 F1554
18/10/1921:103501419N/A30.1076(F), 24(C)34(F), 1(C)22%10CLRN/AN/A3300N/A77 F1549
18/10/1921:053401119N/A30.1076(F), 24(C)33(F), 1(C)22%10CLRN/AN/A3300N/A77 F1544
18/10/1921:003401520N/A30.1076(F), 24(C)32(F), 0(C)21%10CLRN/AN/A3300N/A77 F1539
18/10/1920:553201320N/A30.1076(F), 24(C)32(F), 0(C)21%10CLRN/AN/A3300N/A77 F1534
18/10/1920:503201420N/A30.1077(F), 25(C)32(F), 0(C)19%10CLRN/AN/A3300N/A77 F1529
18/10/1920:453301520N/A30.1076(F), 24(C)32(F), 0(C)21%10CLRN/AN/A3300N/A77 F1524
18/10/1920:403201319N/A30.1077(F), 25(C)33(F), 1(C)21%10CLRN/AN/A3300N/A77 F1519
18/10/1920:353201419N/A30.0977(F), 25(C)33(F), 1(C)21%10CLRN/AN/A3300N/A77 F1514
18/10/1920:303101319N/A30.0977(F), 25(C)33(F), 1(C)21%10CLRN/AN/A3300N/A77 F1509
18/10/1920:253201420N/A30.0977(F), 25(C)34(F), 1(C)21%10CLRN/AN/A3300N/A77 F1504
18/10/1920:203301520N/A30.0977(F), 25(C)34(F), 1(C)21%10CLRN/AN/A3300N/A77 F1499
18/10/1920:153401621N/A30.0977(F), 25(C)35(F), 2(C)22%10CLRN/AN/A3300N/A77 F1494
18/10/1920:103201221N/A30.0977(F), 25(C)36(F), 2(C)22%10CLRN/AN/A3300N/A77 F1489
18/10/1920:053401520N/A30.0977(F), 25(C)37(F), 3(C)24%10CLRN/AN/A3300N/A77 F1484
18/10/1920:003301420N/A30.0977(F), 25(C)36(F), 2(C)22%10CLRN/AN/A3300N/A77 F1479
18/10/1919:553401418N/A30.0977(F), 25(C)37(F), 3(C)24%10CLRN/AN/A3300N/A77 F1474
18/10/1919:503301217N/A30.0977(F), 25(C)36(F), 2(C)22%10CLRN/AN/A3300N/A77 F1469
18/10/1919:453301215N/A30.0977(F), 25(C)37(F), 3(C)24%10CLRN/AN/A3300N/A77 F1464
18/10/1919:403401115N/A30.0977(F), 25(C)36(F), 2(C)22%10CLRN/AN/A3300N/A77 F1459
18/10/1919:353201215N/A30.0977(F), 25(C)36(F), 2(C)22%10CLRN/AN/A3300N/A77 F1454
18/10/1919:303301115N/A30.0976(F), 24(C)37(F), 3(C)25%10CLRN/AN/A3300N/A77 F1449
18/10/1919:253301017N/A30.0975(F), 24(C)38(F), 3(C)25%10CLRN/AN/A3200N/A77 F1444
18/10/1919:203301017N/A30.0975(F), 24(C)38(F), 3(C)25%10CLRN/AN/A3200N/A77 F1439
18/10/1919:153101217N/A30.0975(F), 24(C)38(F), 3(C)25%10CLRN/AN/A3200N/A77 F1434
18/10/1919:1032012N/AN/A30.0975(F), 24(C)39(F), 4(C)27%10CLRN/AN/A3200N/A77 F1429
18/10/1919:053201115N/A30.1075(F), 24(C)39(F), 4(C)27%10CLRN/AN/A3200N/A77 F1424
18/10/1919:003201115N/A30.1074(F), 23(C)39(F), 4(C)29%10CLRN/AN/A3100N/A77 F1419
18/10/1918:553200617N/A30.1074(F), 23(C)39(F), 4(C)29%10CLRN/AN/A3100N/A77 F1414
18/10/1918:503201017N/A30.1074(F), 23(C)39(F), 4(C)29%10CLRN/AN/A3100N/A77 F1409
18/10/1918:4531010N/AN/A30.1073(F), 23(C)39(F), 4(C)29%10CLRN/AN/A3100N/A76 F1404
18/10/1918:403101015270V35030.1073(F), 23(C)40(F), 4(C)29%10CLRN/AN/A3100N/A76 F1399
18/10/1918:353201115N/A30.1073(F), 23(C)40(F), 4(C)29%10CLRN/AN/A3100N/A76 F1394
18/10/1918:3031010N/AN/A30.1073(F), 23(C)40(F), 4(C)29%10CLRN/AN/A3100N/A76 F1389
18/10/1918:2533006N/AN/A30.1072(F), 22(C)40(F), 4(C)31%10CLRN/AN/A3000N/A76 F1384
18/10/1918:203300914N/A30.1072(F), 22(C)40(F), 4(C)31%10CLRN/AN/A3000N/A76 F1379
18/10/1918:153100914N/A30.1071(F), 22(C)39(F), 4(C)31%10CLRN/AN/A2900N/A76 F1374
18/10/1918:1031009N/AN/A30.1071(F), 22(C)40(F), 4(C)31%10CLRN/AN/A2900N/A76 F1369
18/10/1918:053300710N/A30.1171(F), 22(C)40(F), 4(C)31%10CLRN/AN/A2900N/A76 F1364
18/10/1918:003000817N/A30.1170(F), 21(C)40(F), 4(C)33%10CLRN/AN/AN/A71 FN/A1359
18/10/1917:552901117N/A30.1170(F), 21(C)41(F), 5(C)35%10CLRN/AN/AN/A71 FN/A1354
18/10/1917:5030007N/AN/A30.1170(F), 21(C)41(F), 5(C)35%10CLRN/AN/AN/A71 FN/A1349
18/10/1917:4533008N/AN/A30.1169(F), 21(C)42(F), 6(C)38%10CLRN/AN/AN/A70 FN/A1344
18/10/1917:4031006N/AN/A30.1168(F), 20(C)41(F), 5(C)37%10CLRN/AN/AN/A69 FN/A1339
18/10/1917:3530009N/AN/A30.1168(F), 20(C)42(F), 6(C)40%10CLRN/AN/AN/A69 FN/A1334
18/10/1917:3029009N/AN/A30.1168(F), 20(C)42(F), 6(C)40%10CLRN/AN/AN/A69 FN/A1329
18/10/1917:2530009N/AN/A30.1167(F), 19(C)42(F), 6(C)43%10CLRN/AN/AN/A67 FN/A1324
18/10/1917:2029009N/AN/A30.1167(F), 19(C)42(F), 6(C)43%10CLRN/AN/AN/A67 FN/A1319
18/10/1917:1531009N/AN/A30.1167(F), 19(C)42(F), 6(C)43%10CLRN/AN/AN/A67 FN/A1314
18/10/1917:1030009N/A270V34030.1066(F), 19(C)42(F), 6(C)43%10CLRN/AN/AN/A66 FN/A1309
18/10/1917:0529009N/AN/A30.1066(F), 19(C)42(F), 6(C)43%10CLRN/AN/AN/A66 FN/A1304
18/10/1917:003200914N/A30.1066(F), 19(C)42(F), 6(C)43%10CLRN/AN/AN/A66 FN/A1299
18/10/1916:552901014N/A30.1065(F), 18(C)43(F), 6(C)45%10CLRN/AN/AN/A65 FN/A1294
18/10/1916:5029008N/AN/A30.1065(F), 18(C)43(F), 6(C)45%10CLRN/AN/AN/A65 FN/A1289
18/10/1916:4529010N/AN/A30.1064(F), 18(C)43(F), 6(C)45%10CLRN/AN/AN/A63 FN/A1284
18/10/1916:403000815N/A30.1064(F), 18(C)43(F), 6(C)45%10CLRN/AN/AN/A64 FN/A1279
18/10/1916:352901115N/A30.1064(F), 18(C)43(F), 6(C)45%10CLRN/AN/AN/A63 FN/A1274
18/10/1916:302900915N/A30.1063(F), 17(C)43(F), 6(C)48%10CLRN/AN/AN/A62 FN/A1269
18/10/1916:2528007N/AN/A30.1063(F), 17(C)43(F), 6(C)48%10CLRN/AN/AN/A63 FN/A1264
18/10/1916:2027010N/AN/A30.1063(F), 17(C)43(F), 6(C)48%10CLRN/AN/AN/A62 FN/A1259
18/10/1916:1528008N/AN/A30.1062(F), 17(C)43(F), 6(C)48%10CLRN/AN/AN/A61 FN/A1254
18/10/1916:1029007N/AN/A30.1062(F), 17(C)43(F), 6(C)48%10CLRN/AN/AN/A62 FN/A1249
18/10/1916:0528010N/AN/A30.1061(F), 16(C)44(F), 7(C)55%10CLRN/AN/AN/A60 FN/A1244
18/10/1916:0027007N/AN/A30.1060(F), 16(C)45(F), 7(C)55%10CLRN/AN/AN/A59 FN/A1239
18/10/1915:5526009N/AN/A30.1060(F), 16(C)45(F), 7(C)55%10CLRN/AN/AN/A59 FN/A1234
18/10/1915:5027009N/AN/A30.1059(F), 15(C)45(F), 7(C)59%10CLRN/AN/AN/A57 FN/A1229
18/10/1915:4527010N/AN/A30.1059(F), 15(C)46(F), 8(C)63%10CLRN/AN/AN/A57 FN/A1224
18/10/1915:4027007N/AN/A30.1058(F), 14(C)46(F), 8(C)67%10CLRN/AN/AN/A57 FN/A1219
18/10/1915:3526008N/AN/A30.1058(F), 14(C)46(F), 8(C)67%10CLRN/AN/AN/A57 FN/A1214
18/10/1915:3024009N/AN/A30.1057(F), 14(C)46(F), 8(C)67%10CLRN/AN/AN/A55 FN/A1209
18/10/1915:2525008N/AN/A30.1157(F), 14(C)46(F), 8(C)67%10CLRN/AN/AN/A55 FN/A1204
18/10/1915:2025009N/AN/A30.1156(F), 13(C)46(F), 8(C)72%10CLRN/AN/AN/A54 FN/A1199
18/10/1915:1525010N/AN/A30.1056(F), 13(C)46(F), 8(C)72%10CLRN/AN/AN/A53 FN/A1194
18/10/1915:1024010N/AN/A30.1056(F), 13(C)47(F), 8(C)72%10CLRN/AN/AN/A53 FN/A1189
18/10/1915:0525009N/AN/A30.1055(F), 13(C)47(F), 8(C)72%10CLRN/AN/AN/A53 FN/A1184
18/10/1915:002401014N/A30.1055(F), 13(C)47(F), 8(C)72%10CLRN/AN/AN/A52 FN/A1179
18/10/1914:552400914N/A30.1054(F), 12(C)47(F), 8(C)77%10CLRN/AN/AN/A51 FN/A1174
18/10/1914:5023009N/AN/A30.1054(F), 12(C)47(F), 8(C)77%10CLRN/AN/AN/A51 FN/A1169
18/10/1914:4523009N/AN/A30.1053(F), 12(C)47(F), 8(C)77%10CLRN/AN/AN/A50 FN/A1164
18/10/1914:4023010N/AN/A30.1053(F), 12(C)47(F), 8(C)77%10CLRN/AN/AN/A50 FN/A1159
18/10/1914:3523007N/AN/A30.1052(F), 11(C)47(F), 8(C)82%10CLRN/AN/AN/A50 FN/A1154
18/10/1914:3023008N/AN/A30.1052(F), 11(C)47(F), 8(C)82%10CLRN/AN/AN/A49 FN/A1149
18/10/1914:2523007N/AN/A30.1051(F), 11(C)47(F), 8(C)82%10CLRN/AN/AN/A48 FN/A1144
18/10/1914:2023007N/AN/A30.1050(F), 10(C)47(F), 8(C)87%10CLRN/AN/AN/A47 FN/A1139
18/10/1914:1523006N/AN/A30.1050(F), 10(C)47(F), 8(C)87%10CLRN/AN/AN/A48 FN/A1134
18/10/1914:1022006N/AN/A30.1050(F), 10(C)47(F), 8(C)87%10CLRN/AN/AN/A48 FN/A1129
18/10/1914:0522005N/AN/A30.1049(F), 9(C)48(F), 9(C)100%10CLRN/AN/AN/A47 FN/A1124
18/10/1914:0023004N/AN/A30.1049(F), 9(C)48(F), 9(C)100%10CLRN/AN/AN/A49 FN/A1119
18/10/1913:5523003N/AN/A30.1048(F), 9(C)48(F), 9(C)100%10CLRN/AN/AN/A48 FN/A1114
18/10/1913:5023003N/AN/A30.0948(F), 9(C)48(F), 9(C)100%10CLRN/AN/AN/A48 FN/A1109
18/10/1913:4521003N/AN/A30.0948(F), 9(C)48(F), 9(C)100%10CLRN/AN/AN/A48 FN/A1104
18/10/1913:4023004N/AN/A30.0947(F), 8(C)47(F), 8(C)100%10CLRN/AN/AN/A47 FN/A1099
18/10/1913:3523004N/AN/A30.0947(F), 8(C)47(F), 8(C)100%10CLRN/AN/AN/A47 FN/A1094
18/10/1913:3024003N/AN/A30.0946(F), 8(C)46(F), 8(C)100%10CLRN/AN/AN/A46 FN/A1089
18/10/1913:2500000N/AN/A30.0946(F), 8(C)46(F), 8(C)100%10CLRN/AN/AN/A46 FN/A1084
18/10/1913:2000000N/AN/A30.0846(F), 8(C)46(F), 8(C)100%10CLRN/AN/AN/A46 FN/A1079
18/10/1913:1500000N/AN/A30.0846(F), 8(C)46(F), 8(C)100%10CLRN/AN/AN/A46 FN/A1074
18/10/1913:1023003N/AN/A30.0846(F), 8(C)46(F), 8(C)100%10CLRN/AN/AN/A46 FN/A1069
18/10/1913:0521004N/AN/A30.0846(F), 8(C)46(F), 8(C)100%10CLRN/AN/AN/A46 FN/A1064
18/10/1913:0023003N/AN/A30.0846(F), 8(C)46(F), 8(C)100%10CLRN/AN/AN/A46 FN/A1059
18/10/1912:5521003N/AN/A30.0846(F), 8(C)46(F), 8(C)100%10CLRN/AN/AN/A46 FN/A1054
18/10/1912:5020003N/AN/A30.0846(F), 8(C)46(F), 8(C)100%10CLRN/AN/AN/A46 FN/A1049
18/10/1912:4500000N/AN/A30.0845(F), 7(C)45(F), 7(C)100%10CLRN/AN/AN/A45 FN/A1044
18/10/1912:4000000N/AN/A30.0845(F), 7(C)45(F), 7(C)100%10CLRN/AN/AN/A45 FN/A1039
18/10/1912:3500000N/AN/A30.0846(F), 8(C)46(F), 8(C)100%10CLRN/AN/AN/A46 FN/A1034
18/10/1912:3000000N/AN/A30.0846(F), 8(C)46(F), 8(C)100%10CLRN/AN/AN/A46 FN/A1029
18/10/1912:2500000N/AN/A30.0846(F), 8(C)46(F), 8(C)100%10CLRN/AN/AN/A46 FN/A1024
18/10/1912:2000000N/AN/A30.0846(F), 8(C)46(F), 8(C)100%10CLRN/AN/AN/A46 FN/A1019
18/10/1912:1520003N/AN/A30.0846(F), 8(C)46(F), 8(C)100%10CLRN/AN/AN/A46 FN/A1014
18/10/1912:1021003N/AN/A30.0846(F), 8(C)46(F), 8(C)100%10CLRN/AN/AN/A46 FN/A1009
18/10/1912:0521004N/AN/A30.0846(F), 8(C)46(F), 8(C)100%10CLRN/AN/AN/A46 FN/A1004
18/10/1912:0021003N/AN/A30.0847(F), 8(C)47(F), 8(C)100%10CLRN/AN/AN/A47 FN/A999
18/10/1911:5520003N/AN/A30.0847(F), 8(C)47(F), 8(C)100%10CLRN/AN/AN/A47 FN/A994
18/10/1911:5021003N/AN/A30.0847(F), 8(C)47(F), 8(C)100%10CLRN/AN/AN/A47 FN/A989
18/10/1911:4522003N/AN/A30.0847(F), 8(C)47(F), 8(C)100%10CLRN/AN/AN/A47 FN/A984
18/10/1911:4022003N/AN/A30.0847(F), 8(C)47(F), 8(C)100%10CLRN/AN/AN/A47 FN/A979
18/10/1911:3521004N/AN/A30.0847(F), 8(C)47(F), 8(C)100%10CLRN/AN/AN/A47 FN/A974
18/10/1911:3020003N/AN/A30.0847(F), 8(C)47(F), 8(C)100%10CLRN/AN/AN/A47 FN/A969